[[{"header":{"parameterUnit":"m.s-1","parameterCategory":1,"la1":30.2991,"la2":30.254,"lo1":-89.0895,"lo2":-89.0444,"dy":0.0017,"dx":0.0017,"nx":28,"ny":28,"refTime":"2024-12-26T03:00:00:Z","depth":0,"parameterNumber":2,"parameterNumberName":"U-component_of_WINDS"},"data":[0,0,0,0,0,0,0,0,0,0,0,0,0,0,0,0,0,0,0,0,0,0,0,0,0,0,0,0,0,0,0,0,0,0,0,0,0,0,0,0,0,0,0,0,0,0,0,0,0,0,0,0,0,0,0,0,0,0,-6.011,-6.0111,0,-6.0174,-6.0175,-6.0176,-6.0033,-6.0029,-6.0024,-6.002,-6.0091,-6.0097,-6.0103,0,0,0,0,0,0,0,0,0,0,0,0,0,-5.9869,-5.9874,-6.011,-6.0111,-6.0112,-6.0174,-6.0175,-6.0176,-6.0034,-6.0028,-6.0023,-6.0018,-6.0089,-6.0096,-6.0103,0,0,0,0,0,0,0,0,0,0,0,0,0,-5.9958,-5.9876,-6.011,-6.0048,-6.0043,-6.0174,-6.0175,-6.0176,-6.0035,-6.0028,-6.0021,-6.0015,-6.0086,-6.0095,-6.0104,-6.03,0,0,-6.0133,-6.0137,0,0,0,0,0,0,0,0,-5.9953,-5.9967,-6.0056,-6.0053,-6.0047,-6.0089,-6.0116,-6.0218,-6.0037,-6.0038,-6.002,-6.0012,-6.0096,-6.0104,-6.0131,-6.0303,-6.0306,-6.0134,-6.0139,-6.0143,-6.0146,0,0,0,0,0,0,0,-5.9947,-5.9963,-6.0135,-6.0058,-6.0052,-6.0019,-6.0024,-6.0135,-6.0105,-6.0038,-6.0028,-6.0037,-6.0092,-6.0123,-6.0132,-6.0307,-6.0133,-6.0142,-6.0147,-6.0151,-6.0644,-6.0651,0,0,0,0,0,0,-5.9948,-5.9959,-6.0133,-6.0137,-5.9982,-6.0029,-6.0034,-6.0082,-6.0104,-6.01,-6.0043,-6.003,-6.011,-6.0121,-6.0134,-6.0365,-6.0143,-6.0152,-6.0157,-6.0637,-6.0646,-6.0654,0,0,0,0,0,0,-5.9943,-5.9965,-6.0131,-6.0046,-6.0064,-6.004,-6.0095,-6.0087,-6.0118,-6.0107,-6.0102,-6.0079,-6.0105,-6.0121,-6.026,-6.0365,-6.0156,-6.0164,-6.0628,-6.0639,-6.065,-6.0828,0,0,0,0,0,0,-5.9937,-5.9964,-6.0037,-6.0048,-6.0069,-6.0254,-6.0102,-6.0094,-6.0133,-6.0117,-6.014,-6.0137,-6.0101,-6.0247,-6.0269,-6.0374,-6.0172,-6.0618,-6.0633,-6.0646,-6.0812,-6.0844,-6.0871,0,0,0,0,0,-5.9929,-6.0085,-6.0041,-6.0063,-6.0159,-6.0261,-6.0273,-6.0227,-6.0143,-6.0216,-6.021,-6.0136,-6.035,-6.0262,-6.0286,-6.0396,-6.0611,-6.0629,-6.0645,-6.0799,-6.0838,-6.087,0,0,0,0,0,0,-6.0088,-6.0085,-6.0037,-6.0201,-6.0232,-6.0236,-6.0328,-6.0269,-6.0325,-6.0308,-6.025,-6.0257,-6.0407,-6.0415,-6.0317,-6.0587,-6.0467,-6.0489,-6.0576,-6.0612,-6.0641,-6.0636,-6.0179,0,0,0,0,0,-6.0142,-6.0223,-6.0217,-6.0362,-6.038,-6.0352,-6.0394,-6.0356,-6.0387,-6.04,-6.0403,-6.0437,-6.0512,-6.0562,-6.063,-6.0813,-6.0817,-6.09,-6.093,-6.0953,-6.0974,-6.1072,-6.111,-6.071,-6.0709,-6.0709,0,0,-6.0255,-6.0263,-6.0318,-6.0395,-6.0414,-6.0501,-6.0364,-6.0461,-6.0526,-6.0415,-6.0545,-6.055,-6.0584,-6.0746,-6.0817,-6.0757,-6.1085,-6.0975,-6.0994,-6.1002,-6.1094,-6.1131,-6.1165,-6.0721,-6.0719,-6.0717,0,0,-6.0504,-6.0519,-6.0642,-6.0664,-6.0695,-6.0675,-6.0705,-6.0719,-6.0717,-6.0847,-6.0766,-6.0843,-6.0972,-6.1,-6.1032,-6.1294,-6.1229,-6.1318,-6.147,-6.1567,-6.1598,-6.1626,-6.172,-6.1755,-6.1338,-6.1339,-6.1339,0,-6.0641,-6.0766,-6.0713,-6.0816,-6.0853,-6.0755,-6.0881,-6.0906,-6.0958,-6.0987,-6.0918,-6.1079,-6.1096,-6.1263,-6.1327,-6.1356,-6.1389,-6.1315,-6.1598,-6.1625,-6.165,-6.1739,-6.1775,-6.1349,-6.1348,-6.1347,-6.1346,0,-6.0933,-6.1022,-6.1118,-6.117,-6.1218,-6.1332,-6.1297,-6.1352,-6.1311,-6.1299,-6.1434,-6.145,-6.152,-6.1557,-6.1518,-6.172,-6.1681,-6.1607,-6.1485,-6.17,-6.1783,-6.1816,-6.1364,-6.136,-6.1357,-6.1355,0,0,-6.1284,-6.1305,-6.1342,-6.1364,-6.1392,-6.146,-6.1571,-6.1638,-6.1687,-6.1727,-6.182,-6.1932,-6.1863,-6.1899,-6.1862,-6.1947,-6.2155,-6.1861,-6.1861,-6.1916,-6.238,-6.2436,-6.2477,-6.2112,-6.2118,-6.2123,-6.2377,0,-6.1532,-6.1719,-6.1675,-6.1861,-6.1943,-6.1853,-6.1949,-6.1978,-6.1971,-6.2041,-6.2033,-6.2114,-6.2016,-6.2037,-6.2117,-6.2113,-6.2247,-6.2094,-6.2199,-6.2203,-6.2193,-6.252,-6.2579,-6.2818,-6.2409,-6.2415,-6.2419,0,-6.1845,-6.1895,-6.209,-6.2105,-6.2138,-6.2225,-6.2284,-6.2351,-6.2383,-6.2372,-6.2413,-6.236,-6.2471,-6.2349,-6.2502,-6.2399,-6.244,-6.2444,-6.2452,-6.246,-6.2324,-6.2537,-6.2893,-6.2929,-6.2469,-6.2465,-6.2462,0,-6.2082,-6.2199,-6.2331,-6.2353,-6.2374,-6.2438,-6.245,-6.2474,-6.2518,-6.257,-6.2598,-6.2663,-6.2699,-6.2752,-6.2719,-6.2633,-6.2879,-6.2753,-6.2874,-6.2875,-6.293,-6.2927,-6.3298,-6.2956,-6.2956,-6.2955,-6.2954,0,-6.2362,-6.2485,-6.2437,-6.2519,-6.2654,-6.2603,-6.2739,-6.2741,-6.2764,-6.2845,-6.2771,-6.285,-6.2801,-6.2876,-6.2852,-6.2983,-6.3,-6.2995,-6.2987,-6.3002,-6.3003,-6.3028,-6.301,-6.2965,-6.2963,-6.2961,-6.2959,0,-6.265,-6.2623,-6.276,-6.2769,-6.2774,-6.2874,-6.2881,-6.2958,-6.2945,-6.3049,-6.3071,-6.3052,-6.3136,-6.3108,-6.32,-6.3183,-6.3351,-6.3322,-6.334,-6.3333,-6.3455,-6.3444,-6.3855,-6.3906,-6.3532,-6.3536,-6.3539,0,-6.283,-6.2923,-6.2941,-6.2989,-6.3006,-6.3085,-6.3129,-6.3083,-6.3133,-6.3176,-6.3248,-6.3326,-6.3386,-6.3526,-6.3521,-6.3591,-6.3563,-6.3702,-6.3573,-6.3586,-6.3566,-6.3561,-6.357,-6.3728,-6.3733,-6.3736,-6.3739,0,-6.3155,-6.3137,-6.3202,-6.3264,-6.3318,-6.3364,-6.3404,-6.3449,-6.3406,-6.3465,-6.355,-6.3597,-6.3689,-6.3769,-6.3832,-6.3846,-6.3787,-6.378,-6.3811,-6.3827,-6.3834,-6.3833,-6.341,-6.377,-6.3767,-6.3765,-6.3763,-6.3762,-6.3394,-6.3472,-6.3497,-6.3573,-6.3598,-6.3638,-6.371,-6.3706,-6.3776,-6.3846,-6.3816,-6.3915,-6.3945,-6.4024,-6.4048,-6.4125,-6.4072,-6.4118,-6.4129,-6.4141,-6.4157,-6.3822,-6.4137,-6.4136,-6.4135,-6.4134,-6.4133,0,-6.3714,-6.3726,-6.3796,-6.3854,-6.3915,-6.3852,-6.3893,-6.3948,-6.4035,-6.4068,-6.4129,-6.4227,-6.4304,-6.4306,-6.4378,-6.444,-6.4415,-6.446,-6.4455,-6.446,-6.42,-6.4166,-6.448,-6.448,-6.448,-6.448,-6.4479,-6.4479,-6.3888,-6.4017,-6.4003,-6.4144,-6.4155,-6.425,-6.4279,-6.4316,-6.4342,-6.4455,-6.4517,-6.4518,-6.4539,-6.4612,-6.468,-6.4679,-6.4709,-6.4766,-6.4755,-6.4512,-6.4478,-6.4445,-6.4412,-6.4773,-6.4773,-6.5007,-6.501,-6.5011]},{"header":{"parameterUnit":"m.s-1","parameterCategory":1,"la1":30.2991,"la2":30.254,"lo1":-89.0895,"lo2":-89.0444,"dy":0.0017,"dx":0.0017,"nx":28,"ny":28,"refTime":"2024-12-26T03:00:00:Z","depth":0,"parameterNumber":3,"parameterNumberName":"V-component_of_WINDS"},"data":[0,0,0,0,0,0,0,0,0,0,0,0,0,0,0,0,0,0,0,0,0,0,0,0,0,0,0,0,0,0,0,0,0,0,0,0,0,0,0,0,0,0,0,0,0,0,0,0,0,0,0,0,0,0,0,0,0,0,-1.6104,-1.6104,0,-1.6089,-1.6089,-1.6089,-1.6035,-1.6034,-1.6033,-1.6032,-1.6017,-1.6018,-1.6019,0,0,0,0,0,0,0,0,0,0,0,0,0,-1.6085,-1.6086,-1.6104,-1.6104,-1.6104,-1.6089,-1.6089,-1.6089,-1.6036,-1.6034,-1.6033,-1.6031,-1.6017,-1.6018,-1.6019,0,0,0,0,0,0,0,0,0,0,0,0,0,-1.6084,-1.6086,-1.6104,-1.6075,-1.6073,-1.6089,-1.6089,-1.6089,-1.6036,-1.6034,-1.6032,-1.6031,-1.6017,-1.6018,-1.6019,-1.6062,0,0,-1.6022,-1.6023,0,0,0,0,0,0,0,0,-1.6084,-1.6085,-1.608,-1.6077,-1.6074,-1.6062,-1.6077,-1.608,-1.6036,-1.605,-1.6032,-1.603,-1.6034,-1.6033,-1.6034,-1.6062,-1.6061,-1.6022,-1.6023,-1.6023,-1.6024,0,0,0,0,0,0,0,-1.6084,-1.6085,-1.6098,-1.608,-1.6076,-1.6063,-1.6061,-1.6077,-1.6052,-1.6049,-1.6045,-1.6044,-1.6032,-1.6034,-1.6034,-1.6061,-1.6022,-1.6023,-1.6024,-1.6024,-1.6121,-1.6122,0,0,0,0,0,0,-1.6089,-1.6086,-1.6099,-1.6098,-1.6075,-1.6065,-1.6062,-1.6068,-1.6052,-1.6048,-1.6045,-1.6041,-1.6033,-1.6033,-1.6033,-1.6082,-1.6023,-1.6024,-1.6025,-1.6119,-1.6121,-1.6123,0,0,0,0,0,0,-1.6088,-1.609,-1.6099,-1.6091,-1.6091,-1.6067,-1.6074,-1.6069,-1.607,-1.6049,-1.6044,-1.6052,-1.6031,-1.6031,-1.6055,-1.6081,-1.6025,-1.6026,-1.6117,-1.612,-1.6122,-1.6181,0,0,0,0,0,0,-1.6088,-1.6091,-1.6107,-1.6091,-1.6091,-1.6122,-1.6075,-1.607,-1.6072,-1.6067,-1.6054,-1.605,-1.603,-1.6054,-1.6056,-1.6081,-1.6027,-1.6114,-1.6118,-1.6121,-1.6177,-1.6186,-1.6193,0,0,0,0,0,-1.6088,-1.6125,-1.6109,-1.611,-1.6112,-1.6124,-1.6124,-1.6099,-1.6075,-1.6091,-1.6077,-1.6051,-1.6077,-1.6056,-1.6059,-1.6085,-1.6112,-1.6117,-1.6121,-1.6173,-1.6184,-1.6193,0,0,0,0,0,0,-1.6146,-1.6123,-1.6104,-1.6137,-1.6133,-1.6115,-1.6135,-1.6112,-1.6114,-1.6109,-1.6078,-1.6076,-1.6104,-1.6096,-1.6073,-1.6125,-1.609,-1.6095,-1.6129,-1.6139,-1.6147,-1.6149,-1.6028,0,0,0,0,0,-1.6162,-1.6174,-1.6153,-1.6184,-1.6183,-1.6159,-1.6164,-1.6145,-1.6139,-1.6137,-1.6125,-1.612,-1.6127,-1.6133,-1.6138,-1.6175,-1.6171,-1.6194,-1.6202,-1.6209,-1.6214,-1.6232,-1.6242,-1.6137,-1.6137,-1.6137,0,0,-1.6197,-1.6186,-1.6195,-1.6196,-1.619,-1.6202,-1.6158,-1.6174,-1.6182,-1.6139,-1.6161,-1.6151,-1.6144,-1.6174,-1.6187,-1.6169,-1.6241,-1.6214,-1.622,-1.6221,-1.6237,-1.6247,-1.6256,-1.614,-1.6139,-1.6139,0,0,-1.6267,-1.6259,-1.6284,-1.6279,-1.627,-1.6254,-1.626,-1.6244,-1.6236,-1.6257,-1.6225,-1.6234,-1.6247,-1.6243,-1.6243,-1.6308,-1.6283,-1.631,-1.6354,-1.6371,-1.638,-1.6387,-1.641,-1.6419,-1.6315,-1.6315,-1.6315,0,-1.6311,-1.6329,-1.63,-1.6317,-1.6318,-1.6278,-1.6303,-1.6299,-1.6293,-1.6294,-1.6274,-1.6288,-1.628,-1.6309,-1.6324,-1.6325,-1.6331,-1.6312,-1.6381,-1.6388,-1.6394,-1.6416,-1.6424,-1.6318,-1.6318,-1.6318,-1.6317,0,-1.6383,-1.6396,-1.6417,-1.6411,-1.6414,-1.6435,-1.6409,-1.6415,-1.6395,-1.6381,-1.6401,-1.639,-1.6392,-1.6397,-1.6378,-1.6422,-1.6411,-1.6386,-1.6351,-1.6408,-1.6428,-1.6436,-1.6323,-1.6322,-1.6321,-1.632,0,0,-1.6492,-1.6468,-1.6476,-1.6473,-1.6459,-1.6468,-1.6486,-1.6487,-1.6493,-1.6489,-1.6503,-1.6514,-1.649,-1.649,-1.647,-1.6485,-1.6537,-1.6458,-1.6457,-1.6473,-1.6584,-1.6603,-1.6613,-1.652,-1.6521,-1.6522,-1.6584,0,-1.6558,-1.6589,-1.6562,-1.6597,-1.6608,-1.6568,-1.6584,-1.6577,-1.6563,-1.657,-1.6554,-1.6562,-1.653,-1.653,-1.6543,-1.6528,-1.6559,-1.6523,-1.6533,-1.6534,-1.6537,-1.6624,-1.6645,-1.6704,-1.6592,-1.6593,-1.6594,0,-1.6641,-1.664,-1.6676,-1.6658,-1.6661,-1.6676,-1.6674,-1.668,-1.6671,-1.6659,-1.6658,-1.6633,-1.6648,-1.6613,-1.6634,-1.661,-1.6612,-1.6605,-1.6606,-1.6607,-1.6568,-1.6628,-1.6723,-1.6732,-1.6606,-1.6605,-1.6604,0,-1.6717,-1.6724,-1.6746,-1.6744,-1.6724,-1.6735,-1.6727,-1.6715,-1.6717,-1.6715,-1.6715,-1.6715,-1.6716,-1.6716,-1.6691,-1.6667,-1.6715,-1.6678,-1.6706,-1.6707,-1.672,-1.6719,-1.6817,-1.672,-1.6719,-1.6719,-1.6719,0,-1.6795,-1.6818,-1.678,-1.6794,-1.6818,-1.6786,-1.6812,-1.6799,-1.6789,-1.6799,-1.6765,-1.6775,-1.6741,-1.6748,-1.6728,-1.6748,-1.6749,-1.674,-1.6735,-1.6744,-1.6745,-1.6746,-1.6741,-1.6722,-1.6721,-1.6721,-1.672,0,-1.6885,-1.686,-1.6881,-1.6859,-1.6854,-1.6873,-1.6854,-1.6866,-1.6848,-1.6861,-1.6863,-1.6836,-1.6841,-1.6816,-1.6818,-1.6804,-1.6835,-1.6822,-1.6838,-1.6834,-1.6865,-1.6863,-1.6967,-1.6979,-1.6874,-1.6875,-1.6875,0,-1.6937,-1.6954,-1.6933,-1.6937,-1.693,-1.6937,-1.6938,-1.6907,-1.691,-1.6898,-1.6911,-1.6914,-1.6914,-1.6925,-1.6905,-1.6906,-1.6893,-1.693,-1.6893,-1.6901,-1.6894,-1.6894,-1.6895,-1.6938,-1.6939,-1.694,-1.6941,0,-1.7032,-1.7018,-1.702,-1.7018,-1.702,-1.7018,-1.7012,-1.7018,-1.6983,-1.6988,-1.6993,-1.6993,-1.6993,-1.6996,-1.6992,-1.6983,-1.6957,-1.6952,-1.6959,-1.6969,-1.6978,-1.6974,-1.686,-1.6951,-1.695,-1.6949,-1.6949,-1.6948,-1.7104,-1.7117,-1.7104,-1.7108,-1.71,-1.7095,-1.7104,-1.7087,-1.7091,-1.7088,-1.7069,-1.7077,-1.7065,-1.7057,-1.705,-1.7056,-1.7039,-1.7049,-1.7051,-1.7055,-1.706,-1.6976,-1.7055,-1.7055,-1.7055,-1.7054,-1.7054,0,-1.7198,-1.7187,-1.719,-1.7183,-1.7186,-1.7159,-1.7151,-1.7155,-1.7163,-1.7153,-1.7154,-1.7158,-1.716,-1.714,-1.7139,-1.7147,-1.7135,-1.7148,-1.7148,-1.7146,-1.7076,-1.707,-1.7158,-1.7158,-1.7158,-1.7158,-1.7158,-1.7158,-1.7247,-1.7267,-1.7251,-1.7266,-1.7254,-1.7262,-1.7259,-1.7254,-1.7247,-1.7253,-1.7254,-1.7241,-1.7227,-1.7224,-1.7224,-1.7218,-1.7219,-1.7237,-1.7227,-1.7162,-1.7152,-1.7142,-1.7137,-1.7237,-1.7238,-1.7297,-1.7298,-1.7298]}]]